This is the latest recevied weather packets stored in our database for station/object EB1BWO-10. If no packets are shown the sender has not sent any weather packets the latest 10 day(s).
| Time | Temp. | Humidity | Pressure | Rain* | Wind** | Luminosity | Snow |
|---|---|---|---|---|---|---|---|
| 1777886875 | 9.44° C | 94% | 949.7 hPa | - | - | - | - |
| 1777885975 | 10° C | 93% | 949.6 hPa | - | - | - | - |
| 1777885075 | 10.56° C | 92% | 949.7 hPa | - | - | - | - |
| 1777884174 | 10° C | 92% | 949.6 hPa | - | - | - | - |
| 1777883274 | 10° C | 91% | 949.5 hPa | - | - | - | - |
| 1777882375 | 10.56° C | 92% | 949.3 hPa | - | - | - | - |
| 1777881474 | 10° C | 92% | 949.3 hPa | - | - | - | - |
| 1777880574 | 9.44° C | 92% | 949.1 hPa | - | - | - | - |
| 1777879674 | 8.89° C | 92% | 949.1 hPa | - | - | - | - |
| 1777878774 | 8.89° C | 93% | 949 hPa | - | - | - | - |
| 1777876975 | 7.78° C | 95% | 948.9 hPa | - | - | - | - |
| 1777876075 | 7.78° C | 95% | 948.8 hPa | - | - | - | - |
| 1777875175 | 7.22° C | 96% | 948.6 hPa | - | - | - | - |
| 1777874275 | 7.78° C | 98% | 948.5 hPa | - | - | - | - |
| 1777873375 | 7.78° C | 98% | 948.5 hPa | - | - | - | - |
| 1777872475 | 8.33° C | 98% | 948.4 hPa | - | - | - | - |
| 1777871574 | 8.33° C | 99% | 948.2 hPa | - | - | - | - |
| 1777870674 | 8.33° C | 99% | 948.2 hPa | - | - | - | - |
| 1777869774 | 8.33° C | 99% | 948.1 hPa | - | - | - | - |
| 1777868874 | 8.33° C | 100% | 948.2 hPa | - | - | - | - |
| 1777867974 | 8.33° C | 99% | 948.2 hPa | - | - | - | - |
| 1777867074 | 8.33° C | 99% | 948.2 hPa | - | - | - | - |
| 1777866174 | 8.33° C | 98% | 948.3 hPa | - | - | - | - |
| 1777865274 | 8.33° C | 98% | 948.4 hPa | - | - | - | - |
| 1777864374 | 8.33° C | 98% | 948.4 hPa | - | - | - | - |
* Rain since midnight (hover to see other rain measurements)
** Current wind speed in m/s (hover to see current wind gust speed)